Location: Claflin County Park
(44.8478°N, 87.5507°W)
Time: 07:27:14
(UTC+00:00)

USA 234 - Pass Details

Date: 20 March 2026
Orbit: 1102 x 1106 km, 123.0° (Epoch: 4 January)

Event Time Altitude Azimuth Distance (km) Brightness Sun altitude
Exits shadow 01:49:57 15° 61° (ENE) 2,600 4.9 -19.6°
Maximum altitude 01:54:24 32° 8° (N) 1,806 4.5 -20.4°
Drops below altitude 10° 02:00:01 10° 308° (NW) 2,970 6.6 -21.3°
Sets 02:02:46 0° 299° (WNW) 3,929 7.7 -21.7°
